CZ-4B R/B

Satellite information

Favourite Embed

Satellite Type and Status

ROCKET BODYIN ORBIT

Key statistics

Satellite CZ-4B R/B at a glance.

Uptime

2066

Days in orbit

Revolutions

≈ 15.1

Per day

Orbit

SSO

Sun Synchronous Orbit

Inclination

98.7

Latest

Satellite identification and parameters

Extended collection of information and parameters for CZ-4B R/B.

Object identification

Identified? True

Debris? False

Object name: CZ-4B R/B

International designator: 2019-059D

Object number (NORAD): 44531

Object ID (CCSDS): 44531

Country: PEOPLES REPUBLIC OF CHINA (PRC)

Current information (Y/N): Y

RCS size: LARGE

Orbital parameters

Period: 95.451 minutes

Inclination: 98.7058 deg

SMA: 6918.549 km

Apoapsis: 643.788 km

Periapsis: 437.039 km

RAAN: 98.3976 deg

Eccentricy: 0.0149416

Argument of periapsis: 149.012 deg

Mean anomaly: 212.0028 deg

Mean motion: 15.08621396 rev/day

Mean motion (dot): 0.00004629 rev/day2

B* drag term: 0.00023247 1/REarth

Two-line elements (TLE)

Creation date: May 8, 2025, 3:01 a.m.

Reference frame: TEME

Reference center: EARTH

Epoch: May 7, 2025, 8:10 p.m. UTC

TLE line 0: 0 CZ-4B R/B

TLE line 1: 1 44531U 19059D 25127.84074360 .00004629 00000-0 23247-3 0 9992

TLE line 2: 2 44531 98.7058 98.3976 0149416 149.0120 212.0028 15.08621396308502

Live tracking on map

Real-time ground track for satellite CZ-4B R/B.

In-orbit conjunctions

A list of the most updated potential collisions computed for object CZ-4B R/B.

Target Orbit TCA Probability of collision Miss distance Type
CZ-6A DEB LEO 2025-01-07 16:06:00 0.0006484643 371.0 (m) DEBRIS

Associated space launch

CZ-4B R/B was lifted into orbit during the mission ‘Long March 4B | Ziyuan-2D, Tianyi MV-1, BNU-1’, on board a Long March 4B space rocket.

The launch took place on Sept. 12, 2019, 3:26 a.m. from Launch Complex 9.

For more information about the launch, click the button.

Launch to space Long March 4B | Ziyuan-2D, Tianyi MV-1, BNU-1
Long March 4B | Ziyuan-2D, Tianyi MV-1, BNU-1

Agency: N/A

Status: Launch Successful

Launch date: Sept. 12, 2019, 3:26 a.m. UTC

Rocket: Long March 4B

Launch pad: Launch Complex 9

Location: Taiyuan Satellite Launch Center, People's Republic of China

...

Latest news about this satellite

News about space launch
China returns Long March 4 to service with Ziyuan launch


Newsletter sign-up

Weekly statistics, charts and insights to help you stay on top of the space industry.